www.pogodaiklimat.ru

Погода и климат >> Архив погоды >> Албания >> Кучова


ПОГОДА в Кучове

  • Прогноз погоды в Кучове
  • Монитор погоды в Кучове

АРХИВ ПОГОДЫ в Кучове

Время (UTC), дата Ветер
(напр.,м/с)
 
Видим.   Явления Облачность Т
(С)
Тd
(С)
f
(%)
Тe
(С)
Тes
(С)
Комфортность P
(гПа)
Po
(гПа)
Тmin
(С)
Tmax
(С)
R
(мм)
R24
(мм)
S
(см)
18 16.08 СЗ 4 20 км ясно +28.2 +10.8 34 +29 +29 жарко 1011.3 1007.7 +31.8
21 16.08 штиль 0 10 км ясно +21.4 +17.0 76 +25 +25 комфорт 1011.7 1008.0
00 17.08 штиль 0 10 км ясно +17.4 +15.5 89 +17 +17 1011.9 1008.1
03 17.08 штиль 0 10 км ясно +16.4 +13.9 85 +16 +16 1012.2 1008.4
06 17.08 штиль 0 20 км ясно +18.8 +13.9 73 +20 +24 1012.2 1008.4 +16.0
09 17.08 штиль 0 20 км ясно +26.8 +14.9 48 +29 +49 жарко 1013.4 1009.8
12 17.08 С 4 20 км 1/0
[Ac trans]
+31.8 +9.4 25 +31 +41 жарко 1013.1 1009.5
15 17.08 СЗ 4 20 км 3/0
[Ac cuf]
+31.0 +9.3 26 +30 +33 жарко 1012.7 1009.1
18 17.08 штиль 0 20 км ясно +27.0 +11.1 37 +28 +28 жарко 1013.4 1009.7 +31.8
21 17.08 штиль 0 10 км ясно +19.8 +16.3 80 +22 +22 комфорт 1013.1 1009.4
00 18.08 штиль 0 10 км ясно +17.8 +15.8 88 +18 +18 1013.2 1009.4
03 18.08 штиль 0 10 км ясно +15.4 +12.8 84 +15 +15 1013.3 1009.4
06 18.08 С 2 20 км ясно +17.8 +13.5 76 +18 +22 1014.2 1010.4 +14.8
09 18.08 штиль 0 20 км ясно +28.8 +10.4 32 +29 +49 жарко 1014.4 1010.8
12 18.08 З 2 20 км ясно +33.2 +9.9 24 +32 +48 жарко 1014.0 1010.4
15 18.08 З 4 20 км ясно +31.2 +8.3 24 +30 +33 жарко 1012.9 1009.3
18 18.08 штиль 0 20 км ясно +28.4 +12.7 38 +30 +30 жарко 1013.1 1009.4 +33.8
21 18.08 ЮВ 2 10 км ясно +19.4 +16.3 82 +22 +22 комфорт 1014.7 1010.9
00 19.08 ЮВ 4 10 км ясно +16.6 +14.4 87 +16 +16 1014.8 1011.0
03 19.08 штиль 0 10 км ясно +15.4 +13.6 89 +15 +15 1015.0 1011.1
06 19.08 штиль 0 20 км ясно +18.4 +15.1 81 +19 +23 1015.2 1011.4 +15.4
09 19.08 штиль 0 20 км ясно +26.8 +10.4 36 +28 +47 жарко 1015.2 1011.6
12 19.08 СЗ 2 20 км ясно +32.4 +12.6 30 +33 +48 жарко 1014.7 1011.1
15 19.08 СЗ 4 20 км ясно +32.8 +14.0 32 +34 +37 очень
жарко
1014.7 1011.1
18 19.08 штиль 0 20 км ясно +29.0 +10.7 32 +29 +29 жарко 1014.5 1010.8 +33.6
21 19.08 штиль 0 10 км ясно +21.0 +17.7 81 +25 +25 комфорт 1015.4 1011.7
00 20.08 ЮВ 2 10 км ясно +18.0 +15.8 87 +19 +19 1015.6 1011.8
03 20.08 ЮВ 2 10 км ясно +16.4 +14.4 88 +16 +16 1015.8 1012.0
06 20.08 штиль 0 20 км ясно +17.6 +15.4 87 +18 +22 1016.0 1012.2 +15.8
09 20.08 штиль 0 20 км ясно +28.8 +14.2 41 +31 +50 жарко 1016.1 1012.4
12 20.08 С 2 20 км ясно +34.0 +15.0 32 +36 +51 опасность
солнечного
удара
1015.0 1011.4
15 20.08 З 6 20 км ясно +33.0 +13.6 31 +34 +36 очень
жарко
1014.9 1011.3
18 20.08 штиль 0 20 км ясно +29.8 +19.8 55 +36 +36 очень
душно
1015.5 1011.8 +35.0
21 20.08 штиль 0 10 км ясно +21.0 +19.1 89 +25 +25 комфорт 1014.9 1011.1
00 21.08 штиль 0 10 км ясно +19.6 +18.1 91 +22 +22 комфорт 1015.0 1011.2
03 21.08 штиль 0 10 км ясно +17.8 +15.8 88 +18 +18 1014.8 1011.0
06 21.08 штиль 0 20 км ясно +17.8 +12.5 71 +18 +22 1016.0 1012.2 +17.8
09 21.08 штиль 0 20 км ясно +28.4 +17.9 53 +33 +52 опасность
солнечного
удара
1016.2 1012.5
12 21.08 штиль 0 20 км ясно +33.2 +14.2 32 +35 +55 опасность
солнечного
удара
1015.4 1011.8
15 21.08 З 4 20 км ясно +33.8 +14.4 31 +35 +38 очень
жарко
1014.4 1010.8
18 21.08 З 2 20 км ясно +29.0 +14.8 42 +31 +31 жарко 1014.2 1010.5 +34.0
21 21.08 штиль 0 10 км ясно +21.8 +18.6 82 +27 +27 душно 1014.3 1010.5
00 22.08 штиль 0 10 км ясно +20.8 +18.6 87 +25 +25 комфорт 1014.4 1010.6
03 22.08 штиль 0 10 км ясно +17.4 +16.1 92 +17 +17 1014.6 1010.8
06 22.08 штиль 0 20 км 3/0
[Ac trans]
+19.2 +15.3 78 +21 +24 комфорт 1014.8 1011.0 +16.4
09 22.08 штиль 0 20 км ясно +31.0 +13.7 35 +32 +51 опасность
солнечного
удара
1015.6 1012.0
12 22.08 штиль 0 20 км 3/0
[Ac trans]
+36.4 +9.8 20 +35 +52 опасность
солнечного
удара
1015.2 1011.6
15 22.08 З 8 20 км 3/0
[Ac trans]
+33.0 +11.6 27 +33 +34 жарко 1014.8 1011.2
18 22.08 штиль 0 20 км 3/0
[Ac trans]
+30.0 +12.0 33 +31 +31 жарко 1014.6 1011.0 +36.6
21 22.08 ЮВ 4 10 км ясно +21.0 +16.4 75 +25 +25 комфорт 1015.6 1011.8
00 23.08 ЮВ 2 10 км ясно +18.4 +16.4 88 +20 +20 1015.7 1011.9
03 23.08 ЮВ 2 10 км ясно +19.0 +14.1 73 +21 +21 комфорт 1016.1 1012.3
06 23.08 штиль 0 20 км ясно +22.4 +15.3 64 +26 +30 жарко 1016.4 1012.7 +18.6
09 23.08 ЮВ 2 20 км ясно +32.2 +27.7 77 +52 +66 опасность
перегрева
1016.3 1012.7
12 23.08 С 2 20 км 3/3 1500 м
[Cu hum]
+38.2 +13.5 23 +38 +49 очень
жарко
1015.2 1011.6

 

Местоположение метеостанции Кучова (Албания): широта 40.80 долгота 19.90 высота над уровнем моря 32 м.

В архиве по умолчанию представлена погода в Кучове за последнюю неделю. Архивные данные за месяц целиком и за предыдущие месяцы, начиная с января 2011 года, Вы можете получить, выбрав интересующий диапазон дат из раскрывающегося списка и нажав кнопку "Ввод!".


*Определитесь, кто Вы:
робот инопланетянин человек

Внимание! Время в таблицах - всемирное. Для получения местного времени необходимо прибавить поправку, которая равна 1 ч.

Смотрите также архив погоды в соседних городах и на ближайших метеорологических станциях:

Погода в Эльбасане (Албания) (46 км)
Погода во Влёре (Албания) (51 км)
Погода в Тиране (Албания) (60 км)
Погода на Сазани (Албания) (62 км)
Погода в Дурресе (Албания) (67 км)
Погода в Корке (Албания) (77 км)
Погода в Гирокастре (Албания) (83 км)
Погода в Охрид аэропорту (Македония) (84 км)
Погода в Охриде (Македония) (84 км)
Погода в Тиране Лапрака (Албания) (91 км)

Пояснения к столбцам:

Ветер - указаны скорость ветра в м/с - средняя за 10 мин, порывы в срок и между сроками (в фигурных скобках) и направление, откуда дует ветер: С - северный, СВ - северо-восточный, В - восточный, ЮВ - юго-восточный, Ю - южный, ЮЗ - юго-западный, З - западный, СЗ - северо-западный.
Видимость - горизонтальная дальность видимости в метрах или километрах. При видимости от 1 до 10 км при отсутствии осадков обычно наблюдается дымка, при ухудшении видимости до 1 км и менее - туман. В сухую погоду видимость может ухудшаться дымом, пылью или мглою.
Явления - указаны атмосферные явления, наблюдавшиеся в срок или в последний час перед сроком; фигурными скобками обозначены явления, наблюдавшиеся между сроками (за 1-3 часа до срока); квадратными скобками обозначены град или гололедные отложения с указанием их диаметра в мм.
Облачность - указаны через наклонную черту общая и нижняя облачность в баллах и высота нижней границы облаков в метрах; квадратными скобками обозначены формы облаков: Ci - перистые, Cs - перисто-слоистые, Cc - перисто-кучевые, Ac - высококучевые, As - высокослоистые, Sc - слоисто-кучевые, Ns - слоисто-дождевые, Cu - кучевые, Cb - кучево-дождевые. Подробнее классификацию облаков см. в Атласе облаков (PDF).
T - Температура воздуха - температура, измеренная на высоте 2 м над землей.
Td - Температура точки росы - температура, при понижении до которой содержащийся в воздухе водяной пар достигнет насыщения.
f - Относительная влажность воздуха - влажноcть воздуха, измеренная на высоте 2 м над землей.
Te - Эффективная температура - температура, которую ощущает одетый по сезону человек в тени. Характеристика душности погоды. При расчете учитывается влияние влажности воздуха и скорости ветра на теплоощущения человека.
Tes - Эффективная температура на солнце - температура, которую ощущает человек, с поправкой на солнечный нагрев. Характеристика знойности погоды. Зависит от высоты солнца над горизонтом, облачности и скорости ветра. Ночью, в пасмурную погоду, а также при ветре 12 м/с и более поправка равна нулю.
P - Атмосферное давление - приведенное к уровню моря атмосферное давление.
Po - Атмосферное давление - измеренное на уровне метеостанции атмосферное давление.
Tmin - Минимальная температура - минимум температуры воздуха на высоте 2 м над землей.
Tmax - Максимальная температура - максимум температуры воздуха на высоте 2 м над землей.
R - Количество осадков - Количество выпавших осадков за период времени, мм. При наведении курсора мыши на число - период времени, за который выпало указанное количество осадков.
R24 - Количество осадков - Количество выпавших осадков за 24 часа, мм.
S - Снежный покров - Высота снежного покрова, см. При наведении курсора мыши на число - состояние снежного покрова и степень покрытия местности в баллах.